This demonstration page uses our WeatherBlox Daily Observations layout. Learn more.

Left ArrowRight Arrow

Hourly Observations for December 5, 2018

Temp ( °F °C ) Dew Point ( °F °C ) Humidity (%) Winds ( mph kmh ) Pressure ( in mb ) Visibility ( mi km ) Precip ( " mm )
12:57 am 00:57 Clear 24 -4.4 18 -7.8 77 77 W 8 13 30.26 1025 10 16 0.00 0.00
1:57 am 01:57 Clear 22 -5.6 16 -8.9 78 78 W 6 9 30.25 1024 10 16 0.00 0.00
2:57 am 02:57 Clear 20 -6.7 16 -8.9 85 85 W 5 7 30.25 1025 10 16 0.00 0.00
3:57 am 03:57 Clear 19 -7.2 14 -10 81 81 WSW 8 13 30.25 1024 10 16 0.00 0.00
4:57 am 04:57 Clear 18 -7.8 15 -9.4 88 88 W 7 11 30.24 1024 10 16 0.00 0.00
5:57 am 05:57 Clear 18 -7.8 14 -10 84 84 W 8 13 30.24 1024 10 16 0.00 0.00
6:57 am 06:57 Clear 18 -7.8 13 -10.6 81 81 W 6 9 30.23 1024 10 16 0.00 0.00
7:57 am 07:57 Sunny 17 -8.3 12 -11.1 80 80 SW 7 11 30.23 1024 10 16 0.00 0.00
8:57 am 08:57 Sunny 18 -7.8 13 -10.6 81 81 WSW 9 15 30.22 1023 10 16 0.00 0.00
9:57 am 09:57 Sunny 25 -3.9 16 -8.9 69 69 W 6 9 30.20 1023 10 16 0.00 0.00
10:57 am 10:57 Sunny 29 -1.7 19 -7.2 66 66 WSW 6 9 30.18 1022 10 16 0.00 0.00
11:57 am 11:57 Sunny 32 0 20 -6.7 61 61 WSW 7 11 30.16 1021 10 16 0.00 0.00
12:57 pm 12:57 Sunny 35 1.7 20 -6.7 54 54 WNW 5 7 30.12 1020 10 16 0.00 0.00
1:57 pm 13:57 Sunny 33 0.6 23 -5 66 66 NW 3 6 30.12 1020 10 16 0.00 0.00
2:57 pm 14:57 Sunny 33 0.6 21 -6.1 61 61 NW 7 11 30.11 1020 10 16 0.00 0.00
3:57 pm 15:57 Sunny 32 0 24 -4.4 73 73 NW 7 11 30.12 1020 10 16 0.00 0.00
4:57 pm 16:57 Sunny 31 -0.6 23 -5 72 72 NNW 5 7 30.13 1020 10 16 0.00 0.00
5:57 pm 17:57 Clear 30 -1.1 22 -5.6 72 72 N 7 11 30.16 1021 10 16 0.00 0.00
6:57 pm 18:57 Clear 29 -1.7 22 -5.6 75 75 NNW 7 11 30.18 1022 10 16 0.00 0.00
7:57 pm 19:57 Clear 27 -2.8 21 -6.1 78 78 NNW 7 11 30.22 1023 10 16 0.00 0.00
8:57 pm 20:57 Mostly Cloudy 28 -2.2 20 -6.7 72 72 N 14 22 30.21 1023 10 16 0.00 0.00
9:57 pm 21:57 Cloudy 28 -2.2 21 -6.1 75 75 N 15 24 30.22 1023 10 16 0.00 0.00
10:57 pm 22:57 Partly Cloudy 28 -2.2 22 -5.6 78 78 N 16 26 30.24 1024 10 16 0.00 0.00
11:57 pm 23:57 Mostly Cloudy 28 -2.2 23 -5 81 81 N 20 31 30.25 1024 10 16 0.00 0.00

Powered by AerisWeather